[[{"header":{"parameterUnit":"m.s-1","parameterCategory":1,"la1":30.2991,"la2":30.254,"lo1":-89.0895,"lo2":-89.0444,"dy":0.0017,"dx":0.0017,"nx":28,"ny":28,"refTime":"2026-02-16T09:00:00:Z","depth":0,"parameterNumber":2,"parameterNumberName":"U-component_of_WINDS"},"data":[0,0,0,0,0,0,0,0,0,0,0,0,0,0,0,0,0,0,0,0,0,0,0,0,0,0,0,0,0,0,0,0,0,0,0,0,0,0,0,0,0,0,0,0,0,0,0,0,0,0,0,0,0,0,0,0,0,0,-1.9395,-1.9395,0,-1.9464,-1.9465,-1.9465,-1.9486,-1.9485,-1.9485,-1.9485,-1.956,-1.9562,-1.9564,0,0,0,0,0,0,0,0,0,0,0,0,0,-1.9284,-1.9286,-1.9394,-1.9395,-1.9396,-1.9464,-1.9465,-1.9466,-1.9486,-1.9485,-1.9485,-1.9484,-1.9559,-1.9562,-1.9564,0,0,0,0,0,0,0,0,0,0,0,0,0,-1.9341,-1.9287,-1.9394,-1.9414,-1.9417,-1.9464,-1.9465,-1.9466,-1.9486,-1.9485,-1.9485,-1.9484,-1.9558,-1.9561,-1.9565,-1.9598,0,0,-1.9576,-1.9577,0,0,0,0,0,0,0,0,-1.9338,-1.9345,-1.9411,-1.9413,-1.9416,-1.9465,-1.9453,-1.951,-1.9486,-1.946,-1.9485,-1.9484,-1.9529,-1.9535,-1.9549,-1.9601,-1.9605,-1.9576,-1.9578,-1.958,-1.9581,0,0,0,0,0,0,0,-1.9334,-1.9342,-1.9422,-1.9411,-1.9415,-1.9421,-1.9429,-1.9464,-1.9497,-1.9462,-1.9464,-1.9471,-1.953,-1.9546,-1.9551,-1.9606,-1.9576,-1.9579,-1.9581,-1.9582,-1.9691,-1.9691,0,0,0,0,0,0,-1.9326,-1.9339,-1.942,-1.9424,-1.9374,-1.9424,-1.9432,-1.945,-1.9496,-1.9503,-1.9472,-1.9472,-1.954,-1.9547,-1.9554,-1.9596,-1.9579,-1.9583,-1.9585,-1.969,-1.9691,-1.9692,0,0,0,0,0,0,-1.9323,-1.9333,-1.9417,-1.9382,-1.9393,-1.9426,-1.9446,-1.9452,-1.9467,-1.9504,-1.951,-1.9481,-1.954,-1.9549,-1.9587,-1.9599,-1.9584,-1.9588,-1.9689,-1.969,-1.9691,-1.9681,0,0,0,0,0,0,-1.932,-1.9332,-1.9343,-1.9382,-1.9395,-1.9447,-1.9447,-1.9454,-1.9473,-1.9474,-1.9514,-1.9521,-1.954,-1.9582,-1.959,-1.9604,-1.959,-1.9688,-1.969,-1.9691,-1.968,-1.9681,-1.9682,0,0,0,0,0,-1.9316,-1.9338,-1.9344,-1.9354,-1.941,-1.9448,-1.9455,-1.9476,-1.9474,-1.9486,-1.951,-1.9519,-1.9597,-1.9585,-1.9595,-1.961,-1.9687,-1.9689,-1.9691,-1.968,-1.9681,-1.9682,0,0,0,0,0,0,-1.9301,-1.9344,-1.935,-1.9385,-1.9413,-1.9451,-1.9468,-1.9477,-1.9507,-1.9507,-1.9533,-1.9542,-1.9578,-1.9598,-1.9585,-1.9645,-1.9643,-1.9646,-1.963,-1.9632,-1.9633,-1.9627,-1.9593,0,0,0,0,0,-1.9302,-1.9328,-1.9364,-1.9392,-1.9405,-1.9434,-1.9451,-1.9465,-1.9495,-1.9507,-1.9534,-1.9564,-1.9595,-1.9615,-1.9646,-1.9684,-1.9694,-1.9699,-1.97,-1.9701,-1.9704,-1.9726,-1.973,-1.9697,-1.9697,-1.9697,0,0,-1.9304,-1.933,-1.9345,-1.9389,-1.9412,-1.944,-1.9443,-1.9472,-1.9494,-1.9512,-1.9549,-1.957,-1.9606,-1.9644,-1.9662,-1.9662,-1.9715,-1.9703,-1.9703,-1.9706,-1.9729,-1.9732,-1.9734,-1.9698,-1.9698,-1.9698,0,0,-1.9321,-1.9343,-1.9368,-1.9391,-1.9426,-1.9445,-1.9452,-1.9489,-1.9503,-1.9541,-1.9555,-1.9582,-1.9635,-1.966,-1.968,-1.9709,-1.9718,-1.9718,-1.9724,-1.9746,-1.9748,-1.9751,-1.9761,-1.9764,-1.9721,-1.9721,-1.9721,0,-1.9319,-1.9359,-1.9381,-1.9409,-1.9429,-1.9446,-1.9473,-1.9495,-1.9538,-1.9552,-1.9551,-1.9619,-1.9644,-1.9688,-1.9696,-1.9711,-1.972,-1.9713,-1.9746,-1.9748,-1.9751,-1.9761,-1.9765,-1.9721,-1.9721,-1.9721,-1.9721,0,-1.9355,-1.9384,-1.9401,-1.9441,-1.9463,-1.949,-1.9517,-1.9537,-1.955,-1.957,-1.961,-1.9641,-1.9678,-1.969,-1.9703,-1.9738,-1.9736,-1.974,-1.9738,-1.9753,-1.9764,-1.9768,-1.972,-1.972,-1.9721,-1.9721,0,0,-1.9363,-1.9416,-1.9421,-1.944,-1.948,-1.9503,-1.9533,-1.9569,-1.9586,-1.9616,-1.9642,-1.9687,-1.9691,-1.9714,-1.973,-1.975,-1.9771,-1.9752,-1.9753,-1.9754,-1.9812,-1.9808,-1.9812,-1.9778,-1.9779,-1.978,-1.9809,0,-1.9385,-1.9436,-1.9457,-1.9499,-1.9526,-1.9544,-1.957,-1.9599,-1.9619,-1.9647,-1.967,-1.9702,-1.9705,-1.9718,-1.9738,-1.9764,-1.9783,-1.9763,-1.9804,-1.9805,-1.9793,-1.9817,-1.9813,-1.9838,-1.9813,-1.9813,-1.9814,0,-1.9417,-1.9446,-1.949,-1.9528,-1.954,-1.9563,-1.9598,-1.9623,-1.9657,-1.9671,-1.9696,-1.9712,-1.9746,-1.9742,-1.979,-1.9775,-1.9794,-1.981,-1.9811,-1.9815,-1.9809,-1.9821,-1.9847,-1.985,-1.982,-1.982,-1.9819,0,-1.9418,-1.9468,-1.9501,-1.9517,-1.9562,-1.9578,-1.9598,-1.9631,-1.9651,-1.9683,-1.9697,-1.9733,-1.9752,-1.9781,-1.9806,-1.9801,-1.9852,-1.985,-1.9865,-1.9864,-1.9874,-1.9873,-1.9902,-1.9887,-1.9887,-1.9887,-1.9887,0,-1.944,-1.9466,-1.9502,-1.9523,-1.9554,-1.9579,-1.9609,-1.9631,-1.966,-1.9687,-1.9706,-1.973,-1.9763,-1.9793,-1.9813,-1.985,-1.9859,-1.9872,-1.9877,-1.987,-1.9868,-1.9881,-1.988,-1.9888,-1.9888,-1.9888,-1.9887,0,-1.9445,-1.9471,-1.9508,-1.9548,-1.9558,-1.9579,-1.9614,-1.9636,-1.9658,-1.9691,-1.97,-1.9735,-1.9771,-1.98,-1.9847,-1.9861,-1.9899,-1.9905,-1.9887,-1.989,-1.9903,-1.9901,-1.9941,-1.9948,-1.9929,-1.9929,-1.9929,0,-1.9457,-1.9477,-1.9519,-1.9537,-1.9556,-1.9586,-1.9607,-1.9634,-1.9655,-1.9696,-1.9713,-1.975,-1.978,-1.9837,-1.9868,-1.9905,-1.9912,-1.9923,-1.9917,-1.9909,-1.9912,-1.991,-1.9912,-1.9923,-1.9924,-1.9924,-1.9924,0,-1.9475,-1.9487,-1.9515,-1.9549,-1.9573,-1.9601,-1.963,-1.9644,-1.9677,-1.9701,-1.9736,-1.976,-1.9808,-1.9845,-1.9885,-1.9908,-1.9922,-1.9926,-1.9931,-1.9923,-1.9912,-1.9918,-1.9888,-1.9924,-1.9924,-1.9924,-1.9924,-1.9924,-1.9484,-1.9503,-1.9535,-1.9567,-1.9592,-1.9618,-1.964,-1.9665,-1.9695,-1.9735,-1.975,-1.9787,-1.9823,-1.9878,-1.9901,-1.9932,-1.9933,-1.9941,-1.9943,-1.9944,-1.9943,-1.9907,-1.9939,-1.9939,-1.9939,-1.994,-1.994,0,-1.9503,-1.9524,-1.9553,-1.9592,-1.9618,-1.9628,-1.9661,-1.9682,-1.9714,-1.9745,-1.9774,-1.9817,-1.9853,-1.9887,-1.9926,-1.9944,-1.9951,-1.9953,-1.9952,-1.9957,-1.994,-1.9931,-1.9947,-1.9947,-1.9947,-1.9947,-1.9947,-1.9947,-1.9515,-1.9548,-1.9564,-1.9611,-1.9634,-1.9669,-1.9687,-1.9712,-1.9737,-1.9783,-1.9812,-1.9834,-1.9867,-1.9908,-1.9943,-1.9952,-1.9965,-1.9966,-1.9976,-1.9959,-1.9958,-1.9957,-1.9949,-1.9968,-1.9968,-1.9991,-1.9992,-1.9992]},{"header":{"parameterUnit":"m.s-1","parameterCategory":1,"la1":30.2991,"la2":30.254,"lo1":-89.0895,"lo2":-89.0444,"dy":0.0017,"dx":0.0017,"nx":28,"ny":28,"refTime":"2026-02-16T09:00:00:Z","depth":0,"parameterNumber":3,"parameterNumberName":"V-component_of_WINDS"},"data":[0,0,0,0,0,0,0,0,0,0,0,0,0,0,0,0,0,0,0,0,0,0,0,0,0,0,0,0,0,0,0,0,0,0,0,0,0,0,0,0,0,0,0,0,0,0,0,0,0,0,0,0,0,0,0,0,0,0,1.6067,1.6068,0,1.6121,1.6122,1.6123,1.6227,1.6229,1.6231,1.6233,1.6288,1.6288,1.6287,0,0,0,0,0,0,0,0,0,0,0,0,0,1.6055,1.6055,1.6067,1.6068,1.6069,1.6121,1.6122,1.6123,1.6227,1.6229,1.6232,1.6234,1.6288,1.6288,1.6287,0,0,0,0,0,0,0,0,0,0,0,0,0,1.608,1.6054,1.6067,1.6127,1.6133,1.6121,1.6122,1.6123,1.6226,1.6229,1.6232,1.6235,1.6288,1.6288,1.6287,1.6222,0,0,1.6285,1.6285,0,0,0,0,0,0,0,0,1.6078,1.608,1.6117,1.6123,1.6129,1.6171,1.6138,1.6156,1.6225,1.6191,1.6233,1.6237,1.6246,1.6249,1.6253,1.6224,1.6227,1.6285,1.6285,1.6284,1.6284,0,0,0,0,0,0,0,1.6076,1.6078,1.6089,1.6118,1.6125,1.6151,1.6158,1.6142,1.6201,1.6194,1.6202,1.6207,1.625,1.6253,1.6255,1.6227,1.6285,1.6284,1.6284,1.6284,1.6151,1.6148,0,0,0,0,0,0,1.6066,1.6076,1.6087,1.609,1.6111,1.6149,1.6157,1.6154,1.6201,1.6211,1.6204,1.6211,1.6253,1.6256,1.6257,1.6186,1.6284,1.6284,1.6283,1.6154,1.6151,1.6147,0,0,0,0,0,0,1.6065,1.6066,1.6085,1.6085,1.609,1.6146,1.6142,1.6154,1.6157,1.6209,1.622,1.6196,1.6255,1.6258,1.6231,1.619,1.6283,1.6283,1.6158,1.6153,1.6149,1.6042,0,0,0,0,0,0,1.6064,1.6065,1.604,1.6084,1.6089,1.6056,1.614,1.6152,1.6155,1.6166,1.6204,1.6214,1.6258,1.6231,1.623,1.619,1.6282,1.6162,1.6156,1.6151,1.6049,1.6034,1.6021,0,0,0,0,0,1.6063,1.6007,1.6038,1.6039,1.606,1.6054,1.6057,1.6109,1.6152,1.6128,1.6162,1.6212,1.6194,1.6227,1.6227,1.6186,1.6165,1.6158,1.6151,1.6056,1.6037,1.6021,0,0,0,0,0,0,1.5956,1.6014,1.6049,1.6005,1.6024,1.6071,1.6043,1.6087,1.6094,1.6103,1.6168,1.6176,1.614,1.616,1.6197,1.6127,1.6188,1.618,1.6115,1.6098,1.6084,1.6081,1.6282,0,0,0,0,0,1.5927,1.5918,1.5969,1.5925,1.5933,1.5986,1.5985,1.6024,1.6046,1.6054,1.6086,1.6105,1.6105,1.6102,1.6104,1.6053,1.6064,1.6025,1.6011,1.5999,1.5992,1.5969,1.5953,1.6124,1.6124,1.6124,0,0,1.5868,1.5898,1.5888,1.5904,1.5923,1.5913,1.5992,1.5976,1.5969,1.6052,1.6029,1.6052,1.6078,1.6039,1.6024,1.6055,1.5947,1.599,1.598,1.598,1.596,1.5944,1.5929,1.6119,1.612,1.6121,0,0,1.5755,1.5775,1.5743,1.5761,1.5789,1.5825,1.5817,1.5858,1.5877,1.5855,1.5917,1.591,1.5906,1.5923,1.5931,1.5826,1.5874,1.5825,1.5751,1.5728,1.5715,1.5703,1.5668,1.5654,1.5817,1.5817,1.5817,0,1.5677,1.5663,1.572,1.5702,1.5708,1.5783,1.5751,1.5765,1.5792,1.5795,1.583,1.5829,1.5851,1.5818,1.5793,1.5796,1.579,1.5821,1.5712,1.5701,1.5691,1.5658,1.5644,1.5811,1.5812,1.5812,1.5813,0,1.5568,1.5557,1.5527,1.5553,1.5555,1.553,1.5584,1.558,1.5619,1.5651,1.5629,1.5659,1.5669,1.5664,1.5701,1.5637,1.5656,1.57,1.5762,1.5667,1.5638,1.5625,1.5802,1.5805,1.5806,1.5808,0,0,1.5388,1.5446,1.5435,1.5448,1.5485,1.5479,1.5457,1.5468,1.5464,1.5481,1.5466,1.5461,1.5504,1.5513,1.5553,1.5532,1.545,1.558,1.5581,1.5556,1.5384,1.5351,1.5335,1.5481,1.5479,1.5477,1.5382,0,1.5284,1.5252,1.5303,1.5259,1.5251,1.5323,1.5305,1.5326,1.5356,1.5354,1.5388,1.5385,1.5439,1.5446,1.5428,1.5463,1.5416,1.5471,1.5469,1.5469,1.5462,1.532,1.5285,1.5194,1.5371,1.5369,1.5367,0,1.5159,1.517,1.5125,1.5168,1.5166,1.5149,1.5164,1.5161,1.5187,1.5211,1.5222,1.527,1.5253,1.5312,1.5291,1.5327,1.533,1.5347,1.5345,1.5348,1.5413,1.5321,1.5165,1.5152,1.5349,1.5351,1.5352,0,1.5035,1.5039,1.5013,1.5022,1.507,1.5057,1.5076,1.5106,1.5109,1.5123,1.5126,1.5137,1.5143,1.515,1.52,1.5238,1.5174,1.5237,1.5195,1.5193,1.5179,1.5179,1.5024,1.5177,1.5177,1.5178,1.5178,0,1.4915,1.4885,1.4959,1.4943,1.4912,1.4972,1.494,1.4967,1.4993,1.4985,1.5046,1.5037,1.5103,1.5101,1.514,1.5119,1.512,1.514,1.5151,1.5135,1.5133,1.5139,1.5147,1.5174,1.5175,1.5175,1.5176,0,1.4772,1.482,1.4797,1.4845,1.4856,1.4832,1.4873,1.4861,1.4896,1.4884,1.4885,1.4939,1.4941,1.4991,1.5003,1.5029,1.4992,1.5014,1.4983,1.4991,1.4947,1.4951,1.479,1.4773,1.4936,1.4934,1.4933,0,1.4693,1.4672,1.4718,1.4717,1.4733,1.4731,1.4735,1.4794,1.4796,1.4826,1.481,1.4817,1.4826,1.4825,1.4866,1.4876,1.49,1.4843,1.4901,1.4887,1.4901,1.4903,1.4902,1.4831,1.4828,1.4827,1.4825,0,1.4548,1.4574,1.4578,1.4591,1.4595,1.4607,1.4624,1.462,1.4684,1.4684,1.4686,1.4693,1.4706,1.4712,1.473,1.4751,1.4799,1.4807,1.4798,1.4782,1.4766,1.4777,1.4951,1.481,1.4812,1.4813,1.4814,1.4814,1.4437,1.4422,1.4453,1.4456,1.4475,1.449,1.4482,1.4516,1.4519,1.4534,1.4568,1.4566,1.4595,1.4624,1.4641,1.4641,1.467,1.4656,1.4653,1.4649,1.4641,1.4765,1.4644,1.4644,1.4645,1.4645,1.4646,0,1.4297,1.4321,1.4323,1.4346,1.4348,1.4393,1.4415,1.4414,1.4411,1.4434,1.4442,1.4446,1.4453,1.4495,1.4507,1.4499,1.4521,1.45,1.4502,1.4507,1.4614,1.4621,1.4482,1.4482,1.4482,1.4482,1.4482,1.4482,1.4225,1.4204,1.4233,1.4223,1.4247,1.4245,1.4254,1.4268,1.4287,1.4289,1.4295,1.4322,1.4354,1.4369,1.4378,1.439,1.4392,1.4364,1.4384,1.4483,1.4499,1.4514,1.4522,1.4364,1.4363,1.4277,1.4277,1.4276]}]]